GW6161 Weather Reports


time (UTC)temp
C
wind
direction
speed
KPH
gust
KPH
rain 1hr
cm
rain 24hr
cm
rain mn
cm
humidity
%
barometer
mb
20260906082129 22 325 0.0 3.2 0.00 1.04 1.04 99 997.1
20260906081126 22 278 1.6 3.2 0.00 1.04 1.04 99 997.3
20260906080124 22 273 3.2 3.2 0.00 1.04 1.04 99 997.5
20260906075124 22 322 1.6 3.2 0.00 1.04 1.04 99 997.5
20260906074124 22 286 3.2 3.2 0.00 1.04 1.04 99 997.5
20260906073121 22 295 3.2 4.8 0.00 1.04 1.04 99 997.2
20260906072118 22 308 3.2 3.2 1.37 1.04 1.04 98 996.7
20260906071114 22 285 0.0 3.2 0.00 0.81 0.81 98 997.3
20260906070112 22 324 1.6 3.2 0.00 0.81 0.81 98 997.0
20260906065107 22 305 0.0 3.2 0.00 0.81 0.81 98 997.1
20260906064104 22 24 0.0 3.2 0.00 0.81 0.81 98 997.0
20260906063100 22 326 3.2 3.2 0.05 0.81 0.81 98 996.5
20260906062101 23 65 0.0 3.2 0.18 0.81 0.81 97 996.2
20260906061056 23 89 0.0 1.6 0.18 0.79 0.79 97 996.5
20260906060055 23 332 0.0 3.2 0.79 0.74 0.74 97 996.7
20260906055052 23 55 3.2 3.2 0.00 0.61 0.61 96 996.8
20260906054047 23 67 3.2 3.2 0.48 0.61 0.61 96 996.4
20260906053045 23 354 0.0 4.8 2.03 0.51 0.51 93 996.7
20260906052043 25 215 3.2 4.8 1.14 0.20 0.20 93 997.2
20260906051039 26 298 0.0 4.8 0.05 0.00 0.00 85 996.8
20260906050036 27 254 0.0 4.8 0.00 0.00 0.00 80 996.7
20260906045035 27 314 1.6 3.2 0.00 0.00 0.00 79 996.8
20260906044032 26 296 0.0 3.2 0.00 0.00 0.00 81 996.9
20260906043030 26 0 1.6 3.2 0.00 0.00 0.00 81 996.8
20260906042028 26 313 0.0 3.2 0.00 0.00 0.00 82 997.0
20260906041025 26 13 1.6 3.2 0.00 0.00 0.00 83 996.8
20260906040021 26 252 0.0 1.6 0.00 0.00 0.00 82 996.9
20260906035018 26 258 0.0 1.6 0.00 0.00 0.00 81 996.8
20260906034013 27 278 1.6 3.2 0.00 0.00 0.00 80 996.7
20260906033010 27 305 0.0 3.2 0.00 0.00 0.00 80 996.5
20260906032006 27 334 0.0 3.2 0.00 0.00 0.00 78 996.7
20260906031003 27 306 1.6 3.2 0.00 0.00 0.00 76 996.8
20260906025957 27 333 1.6 3.2 0.00 0.00 0.00 76 996.6
20260906024955 27 302 1.6 3.2 0.00 0.00 0.00 77 996.4
20260906023950 28 313 1.6 3.2 0.00 0.00 0.00 75 996.2
20260906022946 28 313 3.2 3.2 0.00 0.00 0.00 73 996.1
20260906021943 28 286 3.2 3.2 0.00 0.00 0.00 73 996.0
20260906020944 28 305 3.2 3.2 0.00 0.00 0.00 73 996.0
20260906015938 28 277 0.0 3.2 0.00 0.00 0.00 73 995.9
20260906014938 28 317 3.2 3.2 0.00 0.00 0.00 72 995.7
20260906013934 28 308 1.6 3.2 0.00 0.00 0.00 72 995.5
20260906012931 28 315 0.0 3.2 0.00 0.00 0.00 72 995.3
20260906011930 29 301 1.6 4.8 0.00 0.00 0.00 73 995.3
20260906010926 29 296 1.6 3.2 0.00 0.00 0.00 71 995.1
20260906005924 30 290 1.6 3.2 0.00 0.00 0.00 69 995.3
20260906004921 30 285 1.6 1.6 0.00 0.00 0.00 65 995.3
20260906003918 31 313 0.0 3.2 0.00 0.00 0.00 65 995.1
20260906002914 30 15 0.0 1.6 0.00 0.00 0.00 68 995.0
20260906001914 30 322 0.0 1.6 0.00 0.00 0.00 69 995.2
20260906000910 31 302 0.0 1.6 0.00 0.00 0.00 67 995.3
20260905235906 31 322 0.0 0.0 0.00 0.00 0.00 67 995.3
20260905234902 31 333 0.0 1.6 0.00 0.00 0.00 66 995.0
20260905233858 31 322 0.0 0.0 0.00 0.00 0.00 66 995.1
20260905232857 31 306 0.0 1.6 0.00 0.00 0.00 65 995.1
20260905231854 31 328 0.0 1.6 0.00 0.00 0.00 64 995.1
20260905230852 32 297 0.0 1.6 0.00 0.00 0.00 64 994.9
20260905225849 32 341 0.0 1.6 0.00 0.00 0.00 64 994.8
20260905224845 32 50 0.0 1.6 0.00 0.00 0.00 63 995.1
20260905223841 33 308 0.0 3.2 0.00 0.00 0.00 62 995.0
20260905222839 33 297 0.0 1.6 0.00 0.00 0.00 62 995.0
20260905221834 34 324 1.6 3.2 0.00 0.00 0.00 59 994.8
20260905220832 36 286 4.8 4.8 0.00 0.00 0.00 53 995.0
20260905215827 36 295 3.2 3.2 0.00 0.00 0.00 51 995.1
20260905214826 35 301 3.2 3.2 0.00 0.00 0.00 54 995.4
20260905213827 35 294 1.6 4.8 0.00 0.00 0.00 50 995.1
20260905212824 36 287 3.2 3.2 0.00 0.00 0.00 54 995.3
20260905211824 35 277 3.2 3.2 0.00 0.00 0.00 54 995.3
20260905210822 35 265 3.2 8.0 0.00 0.00 0.00 48 995.3
20260905205820 35 297 3.2 3.2 0.00 0.00 0.00 51 995.4
20260905204820 35 302 3.2 3.2 0.00 0.00 0.00 55 995.3
20260905203821 35 276 3.2 6.4 0.00 0.00 0.00 48 995.6
20260905202818 36 311 3.2 8.0 0.00 0.00 0.00 50 995.8
20260905201814 36 271 3.2 3.2 0.00 0.00 0.00 47 995.9
20260905200810 36 267 3.2 8.0 0.00 0.00 0.00 47 996.1
20260905195810 36 269 4.8 4.8 0.00 0.00 0.00 47 996.3
20260905194807 36 276 3.2 4.8 0.00 0.00 0.00 47 996.5
20260905193806 36 279 4.8 6.4 0.00 0.00 0.00 47 996.6
20260905192802 36 29 0.0 4.8 0.00 0.00 0.00 50 996.9
20260905191757 36 273 8.0 9.7 0.00 0.00 0.00 52 996.9
20260905190754 36 274 3.2 6.4 0.00 0.00 0.00 48 997.0
20260905185753 36 264 3.2 3.2 0.00 0.00 0.00 49 997.0
20260905184753 36 267 4.8 6.4 0.00 0.00 0.00 50 997.3
20260905183752 36 267 6.4 9.7 0.00 0.00 0.00 50 997.4
20260905182747 36 269 1.6 3.2 0.00 0.00 0.00 52 997.3
20260905181743 36 272 3.2 4.8 0.00 0.00 0.00 49 997.6
20260905180743 36 291 3.2 4.8 0.00 0.00 0.00 49 997.6
20260905175738 36 261 3.2 6.4 0.00 0.00 0.00 49 997.7
20260905174733 35 268 3.2 4.8 0.00 0.00 0.00 52 997.9
20260905173731 35 268 3.2 4.8 0.00 0.00 0.00 51 997.9
20260905172726 35 266 3.2 4.8 0.00 0.00 0.00 52 998.0
20260905171722 35 275 3.2 4.8 0.00 0.00 0.00 56 998.1
20260905170721 35 268 3.2 3.2 0.00 0.00 0.00 58 998.2
20260905165721 35 267 4.8 4.8 0.00 0.00 0.00 53 998.2
20260905164716 34 306 3.2 4.8 0.00 0.00 0.00 61 998.7
20260905163712 33 271 3.2 4.8 0.00 0.00 0.00 58 998.7
20260905162710 33 270 1.6 4.8 0.00 0.00 0.00 61 998.8
20260905161710 32 259 1.6 3.2 0.00 0.00 0.00 68 998.8
20260905160707 32 322 0.0 1.6 0.00 0.00 0.00 67 999.0
20260905155708 31 309 1.6 3.2 0.00 0.00 0.00 72 999.2
20260905154707 31 299 0.0 3.2 0.00 0.00 0.00 72 999.1
20260905153704 31 313 0.0 3.2 0.00 0.00 0.00 75 999.4
20260905152700 30 265 4.8 4.8 0.00 0.00 0.00 75 999.3
20260905151701 29 300 1.6 3.2 0.00 0.00 0.00 80 999.4
20260905150657 29 327 0.0 3.2 0.00 0.00 0.00 79 999.0
20260905145654 28 310 1.6 3.2 0.00 0.00 0.00 81 998.9
20260905144654 28 312 1.6 3.2 0.00 0.00 0.00 83 999.0
20260905143654 27 297 0.0 3.2 0.00 0.00 0.00 85 999.1
20260905142653 27 7 1.6 3.2 0.00 0.00 0.00 85 999.3
20260905141648 26 319 1.6 3.2 0.00 0.00 0.00 89 999.4
20260905140645 26 317 1.6 3.2 0.00 0.00 0.00 90 999.6
20260905135640 25 38 0.0 3.2 0.00 0.00 0.00 91 999.4
20260905134635 25 339 1.6 3.2 0.00 0.00 0.00 93 999.3
20260905133630 25 356 1.6 3.2 0.00 0.00 0.00 93 999.6
20260905132630 24 288 1.6 3.2 0.00 0.00 0.00 93 999.6
20260905131625 23 19 3.2 3.2 0.00 0.00 0.00 94 999.7
20260905130620 23 24 0.0 3.2 0.00 0.00 0.00 94 999.7
20260905125620 23 286 0.0 3.2 0.00 0.00 0.00 95 999.4
20260905124618 23 25 0.0 3.2 0.00 0.00 0.00 96 999.6
20260905123615 23 56 0.0 3.2 0.00 0.00 0.00 96 999.6
20260905122612 23 300 1.6 3.2 0.00 0.00 0.00 96 999.4
20260905121607 22 334 0.0 3.2 0.00 0.00 0.00 96 999.3
20260905120601 22 357 0.0 1.6 0.00 0.00 0.00 96 999.2
20260905115601 22 35 0.0 3.2 0.00 0.00 0.00 96 999.1
20260905114602 22 318 1.6 1.6 0.00 0.00 0.00 96 999.0
20260905113601 22 354 0.0 3.2 0.00 0.00 0.00 97 998.9
20260905112558 22 56 1.6 3.2 0.00 0.00 0.00 97 998.8
20260905111554 22 24 0.0 3.2 0.00 0.00 0.00 98 998.8
20260905110552 22 326 0.0 3.2 0.00 0.00 0.00 98 998.5
20260905105548 22 339 1.6 3.2 0.00 0.00 0.00 98 998.5
20260905104543 22 311 1.6 3.2 0.00 0.00 0.00 98 998.6
20260905103538 22 7 0.0 3.2 0.00 0.00 0.00 98 998.1
20260905102535 22 331 0.0 1.6 0.00 0.00 0.00 97 998.2
20260905101530 22 269 0.0 1.6 0.00 0.00 0.00 97 998.0
20260905100525 22 324 1.6 3.2 0.00 0.00 0.00 97 998.1
20260905095525 22 301 0.0 3.2 0.00 0.00 0.00 97 998.0
20260905094521 22 44 0.0 1.6 0.00 0.00 0.00 97 998.0
20260905093521 22 269 0.0 1.6 0.00 0.00 0.00 97 998.1
20260905092518 22 264 0.0 3.2 0.00 0.00 0.00 96 998.1
20260905091513 22 326 0.0 3.2 0.00 0.00 0.00 96 998.1
20260905090508 22 76 0.0 3.2 0.00 0.00 0.00 96 998.0
20260905085506 23 306 0.0 3.2 0.00 0.00 0.00 96 997.8
20260905084502 23 4 1.6 3.2 0.00 0.00 0.00 97 997.8
20260905083458 23 336 0.0 3.2 0.00 0.00 0.00 97 997.8